[[{"header":{"parameterUnit":"m.s-1","parameterCategory":2,"la1":30.2991,"la2":30.254,"lo1":-89.0895,"lo2":-89.0444,"dy":0.0017,"dx":0.0017,"nx":28,"ny":28,"refTime":"2023-09-24T21:00:00:Z","depth":"0","parameterNumber":2,"parameterNumberName":"U-component_of_CURRENTS"},"data":[0,0,0,0,0,0,0,0,0,0,0,0,0,0,0,0,0,0,0,0,0,0,0,0,0,0,0,0,0,0,0,0,0,0,0,0,0,0,0,0,0,0,0,0,0,0,0,0,0,0,0,0,0,0,0,0,0,0,-0.2162,-0.2162,0,-0.2174,-0.2174,-0.2175,-0.2179,-0.2179,-0.2179,-0.2179,-0.2099,-0.2097,-0.2095,0,0,0,0,0,0,0,0,0,0,0,0,0,-0.2189,-0.2188,-0.2162,-0.2162,-0.2162,-0.2174,-0.2174,-0.2175,-0.2179,-0.2179,-0.2179,-0.2178,-0.21,-0.2098,-0.2095,0,0,0,0,0,0,0,0,0,0,0,0,0,-0.2187,-0.2188,-0.2162,-0.2165,-0.2165,-0.2174,-0.2174,-0.2175,-0.2179,-0.2179,-0.2179,-0.2178,-0.2101,-0.2098,-0.2095,-0.2079,0,0,-0.2086,-0.2084,0,0,0,0,0,0,0,0,-0.2187,-0.2186,-0.2165,-0.2165,-0.2165,-0.2174,-0.2155,-0.2138,-0.2179,-0.2174,-0.2179,-0.2178,-0.2115,-0.2111,-0.2116,-0.2076,-0.2072,-0.2085,-0.2083,-0.2082,-0.2081,0,0,0,0,0,0,0,-0.2187,-0.2186,-0.2167,-0.2165,-0.2165,-0.2182,-0.2181,-0.2152,-0.2144,-0.2175,-0.2175,-0.2175,-0.2115,-0.2119,-0.2114,-0.2071,-0.2085,-0.2083,-0.2081,-0.208,-0.2055,-0.2056,0,0,0,0,0,0,-0.2182,-0.2186,-0.2167,-0.2168,-0.2176,-0.2182,-0.2181,-0.2172,-0.2147,-0.2143,-0.2176,-0.2176,-0.2124,-0.2118,-0.2111,-0.2133,-0.2082,-0.2079,-0.2078,-0.2054,-0.2055,-0.2056,0,0,0,0,0,0,-0.2183,-0.218,-0.2166,-0.2177,-0.2177,-0.2181,-0.2171,-0.2172,-0.2172,-0.2148,-0.2143,-0.2174,-0.2124,-0.2115,-0.2098,-0.2128,-0.2078,-0.2075,-0.2052,-0.2054,-0.2056,-0.2149,0,0,0,0,0,0,-0.2183,-0.218,-0.2174,-0.2176,-0.2176,-0.2178,-0.2171,-0.2173,-0.2173,-0.2173,-0.2145,-0.2138,-0.2123,-0.2102,-0.2095,-0.2123,-0.2073,-0.2051,-0.2053,-0.2055,-0.2145,-0.2154,-0.2162,0,0,0,0,0,-0.2184,-0.2176,-0.2173,-0.2171,-0.2166,-0.2179,-0.2181,-0.2184,-0.2173,-0.2181,-0.2165,-0.2139,-0.2111,-0.2101,-0.2091,-0.212,-0.205,-0.2052,-0.2055,-0.2141,-0.2152,-0.2162,0,0,0,0,0,0,-0.2172,-0.2175,-0.2173,-0.2162,-0.2173,-0.2179,-0.2181,-0.2181,-0.2176,-0.2168,-0.2143,-0.2136,-0.2137,-0.2109,-0.2098,-0.212,-0.208,-0.208,-0.2148,-0.2158,-0.2167,-0.221,-0.207,0,0,0,0,0,-0.2169,-0.2164,-0.2175,-0.2162,-0.2169,-0.2173,-0.2176,-0.2181,-0.2176,-0.2174,-0.2157,-0.2141,-0.2141,-0.2133,-0.212,-0.2119,-0.2124,-0.2134,-0.2143,-0.2151,-0.218,-0.2212,-0.2227,-0.2065,-0.2065,-0.2065,0,0,-0.2154,-0.2157,-0.2151,-0.216,-0.2164,-0.2201,-0.2175,-0.2181,-0.2218,-0.2163,-0.2188,-0.2162,-0.2146,-0.2162,-0.216,-0.2141,-0.2199,-0.2154,-0.2161,-0.2187,-0.2217,-0.2233,-0.2247,-0.2067,-0.2066,-0.2066,0,0,-0.2145,-0.2132,-0.2142,-0.2168,-0.2185,-0.22,-0.2203,-0.2214,-0.2225,-0.224,-0.2223,-0.2225,-0.2201,-0.222,-0.2222,-0.2266,-0.2241,-0.2246,-0.2327,-0.2357,-0.2372,-0.2384,-0.2412,-0.2426,-0.2253,-0.2253,-0.2253,0,-0.2131,-0.215,-0.2146,-0.2184,-0.2215,-0.2206,-0.225,-0.2269,-0.2274,-0.2293,-0.2259,-0.2276,-0.2247,-0.2306,-0.2324,-0.2291,-0.2295,-0.2289,-0.2371,-0.2384,-0.2395,-0.242,-0.2435,-0.2258,-0.2257,-0.2257,-0.2256,0,-0.2151,-0.218,-0.2188,-0.2243,-0.2275,-0.2301,-0.2342,-0.2363,-0.2363,-0.2384,-0.242,-0.2396,-0.2409,-0.2401,-0.2375,-0.2446,-0.2418,-0.2377,-0.235,-0.2418,-0.2439,-0.2453,-0.2265,-0.2263,-0.2262,-0.2261,0,0,-0.2088,-0.2185,-0.2191,-0.2251,-0.2313,-0.2348,-0.2411,-0.2474,-0.2528,-0.2526,-0.259,-0.2595,-0.2569,-0.2571,-0.2538,-0.2568,-0.264,-0.2509,-0.2508,-0.2547,-0.2708,-0.2616,-0.2622,-0.2606,-0.2609,-0.2611,-0.2691,0,-0.2107,-0.2201,-0.2245,-0.2348,-0.2407,-0.2452,-0.2526,-0.2584,-0.261,-0.2665,-0.2665,-0.2695,-0.2639,-0.2635,-0.2664,-0.2629,-0.268,-0.2623,-0.2628,-0.2629,-0.2548,-0.2636,-0.2368,-0.241,-0.2704,-0.2706,-0.2708,0,-0.2115,-0.2191,-0.2297,-0.2437,-0.2466,-0.2537,-0.2655,-0.2715,-0.2792,-0.2806,-0.2838,-0.282,-0.2857,-0.2792,-0.2825,-0.2782,-0.2771,-0.2757,-0.2758,-0.2655,-0.2564,-0.2389,-0.2424,-0.2283,-0.2728,-0.2727,-0.2725,0,-0.2094,-0.2223,-0.2316,-0.2366,-0.2521,-0.2588,-0.266,-0.2758,-0.2812,-0.2887,-0.2907,-0.2952,-0.2941,-0.2955,-0.289,-0.2864,-0.2922,-0.2875,-0.2808,-0.28,-0.2568,-0.2535,-0.2475,-0.2951,-0.2951,-0.2951,-0.2951,0,-0.21,-0.218,-0.2324,-0.2395,-0.2532,-0.2612,-0.2742,-0.2815,-0.2894,-0.2943,-0.2968,-0.2985,-0.2977,-0.298,-0.295,-0.2907,-0.2967,-0.2858,-0.2827,-0.259,-0.256,-0.2421,-0.2439,-0.2954,-0.2953,-0.2953,-0.2952,0,-0.2067,-0.2154,-0.2296,-0.2475,-0.2538,-0.2636,-0.2793,-0.2844,-0.2926,-0.2982,-0.2994,-0.3017,-0.3,-0.3,-0.3004,-0.2955,-0.2854,-0.2924,-0.2644,-0.2581,-0.2374,-0.2409,-0.2467,-0.2423,-0.2878,-0.2877,-0.2875,0,-0.2058,-0.2122,-0.2352,-0.2414,-0.2503,-0.2646,-0.2715,-0.2853,-0.289,-0.2974,-0.2973,-0.2993,-0.2954,-0.2943,-0.2842,-0.2809,-0.2796,-0.2596,-0.2513,-0.2359,-0.2377,-0.2436,-0.2399,-0.2243,-0.2237,-0.2231,-0.2227,0,-0.2035,-0.2121,-0.2229,-0.2362,-0.2465,-0.2591,-0.2699,-0.2752,-0.2852,-0.288,-0.2869,-0.285,-0.2807,-0.2591,-0.2558,-0.2527,-0.2449,-0.249,-0.2387,-0.1948,-0.1954,-0.189,-0.221,-0.218,-0.2185,-0.2188,-0.2191,-0.2193,-0.1989,-0.2042,-0.2141,-0.2237,-0.2354,-0.2426,-0.2439,-0.252,-0.2557,-0.2461,-0.2623,-0.2403,-0.227,-0.2143,-0.2137,-0.1906,-0.2158,-0.1799,-0.1881,-0.1976,-0.1856,-0.2094,-0.1992,-0.1995,-0.1998,-0.2001,-0.2003,0,-0.1831,-0.1865,-0.1967,-0.2056,-0.2047,-0.22,-0.2297,-0.2212,-0.2131,-0.2075,-0.1997,-0.1661,-0.1496,-0.1422,-0.1273,-0.1233,-0.1265,-0.1254,-0.1217,-0.1233,-0.1427,-0.1308,-0.098,-0.098,-0.098,-0.098,-0.0981,-0.0981,-0.1734,-0.1705,-0.1735,-0.1652,-0.1706,-0.1639,-0.1635,-0.158,-0.1495,-0.1194,-0.0905,-0.0819,-0.0834,-0.0847,-0.0756,-0.0759,-0.079,-0.0798,-0.098,-0.0989,-0.1043,-0.1095,-0.0979,-0.0587,-0.0587,-0.0613,-0.0613,-0.0613]},{"header":{"parameterUnit":"m.s-1","parameterCategory":2,"la1":30.2991,"la2":30.254,"lo1":-89.0895,"lo2":-89.0444,"dy":0.0017,"dx":0.0017,"nx":28,"ny":28,"refTime":"2023-09-24T21:00:00:Z","depth":"0","parameterNumber":3,"parameterNumberName":"V-component_of_CURRENTS"},"data":[0,0,0,0,0,0,0,0,0,0,0,0,0,0,0,0,0,0,0,0,0,0,0,0,0,0,0,0,0,0,0,0,0,0,0,0,0,0,0,0,0,0,0,0,0,0,0,0,0,0,0,0,0,0,0,0,0,0,-0.0154,-0.0154,0,-0.0101,-0.01,-0.01,-0.0045,-0.0044,-0.0044,-0.0043,0.0041,0.0042,0.0044,0,0,0,0,0,0,0,0,0,0,0,0,0,-0.0244,-0.0243,-0.0154,-0.0153,-0.0153,-0.0101,-0.01,-0.0099,-0.0045,-0.0044,-0.0043,-0.0043,0.004,0.0042,0.0044,0,0,0,0,0,0,0,0,0,0,0,0,0,-0.0199,-0.0242,-0.0154,-0.012,-0.0117,-0.0101,-0.01,-0.0099,-0.0045,-0.0044,-0.0043,-0.0042,0.004,0.0042,0.0044,0.0039,0,0,0.0052,0.0053,0,0,0,0,0,0,0,0,-0.0201,-0.0195,-0.0126,-0.0122,-0.0119,-0.0079,-0.0101,-0.0052,-0.0045,-0.0071,-0.0043,-0.0042,0.0002,0.0008,0.0016,0.0043,0.0047,0.0052,0.0053,0.0054,0.0055,0,0,0,0,0,0,0,-0.0204,-0.0198,-0.0132,-0.0125,-0.0121,-0.012,-0.0112,-0.0092,-0.004,-0.0069,-0.0065,-0.0061,0.0005,0.0014,0.0019,0.0048,0.0052,0.0054,0.0056,0.0056,0.0068,0.0067,0,0,0,0,0,0,-0.0212,-0.02,-0.0134,-0.0131,-0.0159,-0.0119,-0.011,-0.0092,-0.004,-0.0032,-0.0062,-0.0059,0.0009,0.0016,0.0022,0.0005,0.0054,0.0057,0.0058,0.0069,0.0067,0.0066,0,0,0,0,0,0,-0.0214,-0.0206,-0.0136,-0.0166,-0.0157,-0.0118,-0.0099,-0.0092,-0.0081,-0.0036,-0.0026,-0.0058,0.001,0.0019,0.0028,0.0009,0.0058,0.006,0.007,0.0068,0.0067,-0.002,0,0,0,0,0,0,-0.0216,-0.0206,-0.0198,-0.0166,-0.0156,-0.0142,-0.01,-0.0091,-0.008,-0.0075,-0.0029,-0.002,0.0012,0.0024,0.003,0.0014,0.0062,0.0072,0.0069,0.0067,-0.0015,-0.0024,-0.0032,0,0,0,0,0,-0.0219,-0.0213,-0.0197,-0.019,-0.0144,-0.0143,-0.0138,-0.0107,-0.0081,-0.009,-0.0058,-0.0022,0.0015,0.0025,0.0033,0.0016,0.0073,0.007,0.0067,-0.0012,-0.0022,-0.0031,0,0,0,0,0,0,-0.0244,-0.0206,-0.0188,-0.0168,-0.0164,-0.0134,-0.0133,-0.0114,-0.0094,-0.0082,-0.0037,-0.0028,-0.0025,0.0004,0.0013,0.0012,0.005,0.0049,-0.0013,-0.0022,-0.0031,-0.004,0.0064,0,0,0,0,0,-0.0247,-0.0232,-0.0208,-0.0195,-0.0192,-0.0165,-0.0158,-0.014,-0.0119,-0.0108,-0.0079,-0.0048,-0.0032,-0.002,0.0,-0.0002,0.0009,-0.0008,-0.0016,-0.0023,-0.0026,-0.0029,-0.0038,0.0058,0.0058,0.0058,0,0,-0.0252,-0.0231,-0.0221,-0.02,-0.0187,-0.0204,-0.0158,-0.0154,-0.0165,-0.0103,-0.0106,-0.0076,-0.0039,-0.0042,-0.0038,-0.0019,-0.005,-0.0026,-0.0033,-0.0032,-0.0033,-0.0042,-0.005,0.0056,0.0056,0.0056,0,0,-0.0278,-0.0239,-0.0249,-0.0251,-0.0241,-0.0228,-0.0232,-0.0211,-0.0197,-0.0203,-0.0159,-0.0143,-0.012,-0.0097,-0.0082,-0.0124,-0.0093,-0.0117,-0.0164,-0.0168,-0.0176,-0.0182,-0.0207,-0.0215,-0.012,-0.0121,-0.0121,0,-0.029,-0.0294,-0.0256,-0.0279,-0.0284,-0.0246,-0.0275,-0.0263,-0.0244,-0.0236,-0.0217,-0.0184,-0.0148,-0.0148,-0.0159,-0.0142,-0.0146,-0.0131,-0.0179,-0.0185,-0.0191,-0.0213,-0.0221,-0.0125,-0.0125,-0.0124,-0.0124,0,-0.0334,-0.0344,-0.0353,-0.0365,-0.0366,-0.0384,-0.0366,-0.0364,-0.0341,-0.0326,-0.0319,-0.0278,-0.0256,-0.0246,-0.0213,-0.0232,-0.0226,-0.0191,-0.0156,-0.0206,-0.0227,-0.0233,-0.0131,-0.013,-0.0129,-0.0127,0,0,-0.0345,-0.038,-0.0384,-0.0412,-0.0412,-0.0421,-0.0433,-0.0436,-0.0444,-0.0422,-0.0434,-0.04,-0.0365,-0.0346,-0.0303,-0.0301,-0.0345,-0.0267,-0.0265,-0.0296,-0.0377,-0.0296,-0.0295,-0.0322,-0.0323,-0.0323,-0.0386,0,-0.0398,-0.0468,-0.0458,-0.052,-0.0557,-0.0525,-0.0544,-0.0533,-0.0515,-0.0518,-0.0468,-0.0465,-0.0408,-0.0398,-0.0389,-0.0345,-0.0363,-0.0333,-0.032,-0.032,-0.0244,-0.0299,-0.0193,-0.0232,-0.0392,-0.0393,-0.0394,0,-0.0448,-0.0491,-0.0566,-0.0607,-0.0615,-0.0642,-0.0648,-0.0657,-0.0639,-0.0622,-0.06,-0.0559,-0.0541,-0.0491,-0.0465,-0.045,-0.0428,-0.0401,-0.0402,-0.0296,-0.025,-0.0202,-0.0237,-0.0098,-0.0403,-0.0402,-0.0402,0,-0.0497,-0.0559,-0.0622,-0.064,-0.0681,-0.0697,-0.0706,-0.0693,-0.0704,-0.0687,-0.0696,-0.0656,-0.0644,-0.0606,-0.0535,-0.0509,-0.0518,-0.0471,-0.0391,-0.0386,-0.0276,-0.0258,-0.0172,-0.0482,-0.0481,-0.0481,-0.0481,0,-0.0562,-0.0611,-0.0654,-0.0701,-0.0763,-0.0753,-0.0801,-0.0796,-0.0797,-0.0827,-0.0755,-0.0774,-0.0672,-0.0651,-0.0587,-0.0509,-0.0562,-0.0413,-0.0394,-0.0304,-0.0289,-0.0143,-0.0101,-0.0484,-0.0483,-0.0483,-0.0482,0,-0.0615,-0.0646,-0.0727,-0.0783,-0.0801,-0.0841,-0.0878,-0.0909,-0.0892,-0.0931,-0.0932,-0.0878,-0.0825,-0.0734,-0.0672,-0.0572,-0.0419,-0.0479,-0.0386,-0.0353,-0.0095,-0.0062,-0.001,0.0065,-0.0386,-0.0384,-0.0382,0,-0.0655,-0.0707,-0.0794,-0.0835,-0.0868,-0.092,-0.0961,-0.0966,-0.0999,-0.1003,-0.1035,-0.0983,-0.0927,-0.0788,-0.0603,-0.0471,-0.0393,-0.0308,-0.0214,-0.0074,-0.0025,-0.0025,0.0034,-0.0126,-0.0123,-0.012,-0.0118,0,-0.0729,-0.0756,-0.0817,-0.0904,-0.0963,-0.1033,-0.109,-0.1127,-0.1131,-0.1126,-0.1123,-0.107,-0.0904,-0.0654,-0.0448,-0.0364,-0.0164,-0.0243,-0.012,0.0168,0.0193,0.0274,-0.0116,-0.0093,-0.0096,-0.0097,-0.0099,-0.01,-0.0767,-0.0814,-0.088,-0.0944,-0.1025,-0.1105,-0.113,-0.1156,-0.1169,-0.1062,-0.1098,-0.0847,-0.0633,-0.0286,-0.0204,0.0112,0.0018,0.0234,0.0249,0.0224,0.0355,0.0016,0.0087,0.0086,0.0085,0.0084,0.0083,0,-0.0785,-0.0827,-0.0906,-0.0985,-0.1052,-0.1096,-0.1175,-0.1135,-0.1085,-0.0897,-0.0773,-0.0346,-0.0067,0.0159,0.0492,0.0628,0.0628,0.0664,0.0702,0.073,0.0426,0.0504,0.0697,0.0697,0.0697,0.0697,0.0697,0.0696,-0.0793,-0.0846,-0.087,-0.0954,-0.1014,-0.1067,-0.1085,-0.0998,-0.0831,-0.0431,-0.0036,0.0202,0.0424,0.0746,0.1033,0.1046,0.1135,0.1089,0.1099,0.0929,0.089,0.0853,0.094,0.1221,0.1222,0.1438,0.1441,0.1442]}],[{"header":{"parameterUnit":"m.s-1","parameterCategory":2,"la1":30.2991,"la2":30.254,"lo1":-89.0895,"lo2":-89.0444,"dy":0.0017,"dx":0.0017,"nx":28,"ny":28,"refTime":"2023-09-24T21:00:00:Z","depth":"2","parameterNumber":2,"parameterNumberName":"U-component_of_CURRENTS"},"data":[0,0,0,0,0,0,0,0,0,0,0,0,0,0,0,0,0,0,0,0,0,0,0,0,0,0,0,0,0,0,0,0,0,0,0,0,0,0,0,0,0,0,0,0,0,0,0,0,0,0,0,0,0,0,0,0,0,0,-0.1046,-0.1046,0,-0.0994,-0.0994,-0.0993,-0.1032,-0.1034,-0.1036,-0.1037,-0.0993,-0.099,-0.0988,0,0,0,0,0,0,0,0,0,0,0,0,0,-0.1296,-0.129,-0.1046,-0.1046,-0.1045,-0.0994,-0.0994,-0.0993,-0.1032,-0.1034,-0.1036,-0.1038,-0.0994,-0.0991,-0.0988,0,0,0,0,0,0,0,0,0,0,0,0,0,-0.121,-0.1289,-0.1046,-0.1058,-0.1058,-0.0994,-0.0994,-0.0993,-0.1032,-0.1034,-0.1037,-0.1039,-0.0995,-0.0991,-0.0987,-0.0912,0,0,-0.0975,-0.0973,0,0,0,0,0,0,0,0,-0.1215,-0.1201,-0.1057,-0.1057,-0.1057,-0.1022,-0.1066,-0.0966,-0.1031,-0.1042,-0.1037,-0.104,-0.1001,-0.0997,-0.0982,-0.091,-0.0908,-0.0974,-0.0972,-0.097,-0.0969,0,0,0,0,0,0,0,-0.1221,-0.1204,-0.1026,-0.1056,-0.1056,-0.1106,-0.1095,-0.1047,-0.1009,-0.1042,-0.1044,-0.1037,-0.1002,-0.0986,-0.0981,-0.0908,-0.0974,-0.0971,-0.0968,-0.0967,-0.0865,-0.0865,0,0,0,0,0,0,-0.1216,-0.1208,-0.1028,-0.1025,-0.1143,-0.1098,-0.1087,-0.1031,-0.1009,-0.1008,-0.1035,-0.1039,-0.0992,-0.0986,-0.098,-0.0987,-0.097,-0.0966,-0.0964,-0.0866,-0.0865,-0.0865,0,0,0,0,0,0,-0.122,-0.1198,-0.103,-0.1119,-0.1101,-0.1091,-0.1028,-0.1029,-0.1028,-0.1004,-0.1004,-0.1036,-0.0993,-0.0986,-0.0967,-0.0982,-0.0964,-0.0961,-0.0866,-0.0866,-0.0865,-0.0939,0,0,0,0,0,0,-0.1227,-0.1199,-0.1161,-0.1116,-0.1096,-0.101,-0.1026,-0.1026,-0.1019,-0.1024,-0.1004,-0.1002,-0.0995,-0.0973,-0.0963,-0.0976,-0.0958,-0.0866,-0.0866,-0.0865,-0.0937,-0.0941,-0.0945,0,0,0,0,0,-0.1235,-0.117,-0.1158,-0.1138,-0.104,-0.1009,-0.1004,-0.1008,-0.1016,-0.1016,-0.1012,-0.1003,-0.0963,-0.0969,-0.0957,-0.097,-0.0866,-0.0866,-0.0865,-0.0935,-0.094,-0.0945,0,0,0,0,0,0,-0.1244,-0.1166,-0.1153,-0.1062,-0.1048,-0.1017,-0.1005,-0.1005,-0.0996,-0.1003,-0.0991,-0.0987,-0.098,-0.0951,-0.0958,-0.0938,-0.0915,-0.0912,-0.0972,-0.0977,-0.0981,-0.0989,-0.0954,0,0,0,0,0,-0.1226,-0.1165,-0.1118,-0.105,-0.1041,-0.1023,-0.101,-0.1013,-0.0997,-0.0997,-0.0988,-0.0972,-0.0959,-0.0953,-0.093,-0.0904,-0.0935,-0.0905,-0.091,-0.0913,-0.0911,-0.0966,-0.0976,-0.0863,-0.0863,-0.0863,0,0,-0.121,-0.116,-0.1124,-0.1052,-0.1036,-0.1032,-0.1022,-0.1002,-0.1013,-0.0988,-0.0996,-0.0979,-0.0954,-0.0948,-0.0941,-0.0932,-0.0972,-0.0913,-0.0917,-0.0911,-0.0966,-0.0978,-0.0988,-0.0863,-0.0863,-0.0863,0,0,-0.1172,-0.1104,-0.1062,-0.1058,-0.1035,-0.1029,-0.1028,-0.1006,-0.1014,-0.1008,-0.1004,-0.0997,-0.0967,-0.0965,-0.0957,-0.0956,-0.099,-0.0948,-0.0978,-0.1032,-0.1043,-0.1053,-0.1164,-0.1183,-0.0953,-0.0953,-0.0953,0,-0.1172,-0.1094,-0.1053,-0.104,-0.1042,-0.1035,-0.1032,-0.1032,-0.1016,-0.1014,-0.1025,-0.1,-0.0979,-0.098,-0.0992,-0.0968,-0.1025,-0.097,-0.1043,-0.1052,-0.1061,-0.1172,-0.1191,-0.0957,-0.0956,-0.0956,-0.0955,0,-0.1115,-0.1084,-0.1065,-0.1047,-0.1045,-0.1039,-0.1044,-0.1046,-0.1055,-0.1055,-0.1058,-0.1043,-0.103,-0.1028,-0.1012,-0.105,-0.1085,-0.1047,-0.1042,-0.1078,-0.1192,-0.1211,-0.0962,-0.096,-0.0959,-0.0958,0,0,-0.1063,-0.1033,-0.1036,-0.1044,-0.1054,-0.1044,-0.1065,-0.1068,-0.108,-0.1087,-0.1115,-0.1092,-0.1084,-0.1072,-0.1058,-0.1102,-0.123,-0.1107,-0.1108,-0.1239,-0.1413,-0.1293,-0.1303,-0.1218,-0.1221,-0.1222,-0.1491,0,-0.1053,-0.1032,-0.102,-0.1038,-0.1041,-0.1056,-0.1075,-0.1083,-0.1099,-0.1128,-0.1129,-0.1148,-0.1104,-0.1118,-0.1149,-0.1206,-0.1275,-0.1164,-0.1338,-0.1344,-0.1249,-0.1317,-0.1058,-0.1259,-0.151,-0.1513,-0.1516,0,-0.1034,-0.1015,-0.1024,-0.1038,-0.1038,-0.1055,-0.1083,-0.1093,-0.113,-0.1146,-0.1166,-0.1186,-0.1246,-0.121,-0.1343,-0.1284,-0.1349,-0.14,-0.1411,-0.1276,-0.1255,-0.1249,-0.1285,-0.1548,-0.1546,-0.1543,-0.1541,0,-0.105,-0.1038,-0.1044,-0.1054,-0.106,-0.1068,-0.1071,-0.1096,-0.1116,-0.1173,-0.1241,-0.1269,-0.135,-0.1407,-0.1485,-0.1444,-0.1658,-0.1614,-0.1579,-0.1576,-0.1371,-0.1342,-0.1717,-0.1717,-0.1716,-0.1715,-0.1714,0,-0.1073,-0.1086,-0.1049,-0.1061,-0.1056,-0.1065,-0.1076,-0.1091,-0.1144,-0.1204,-0.1252,-0.1333,-0.1407,-0.1524,-0.1556,-0.1633,-0.1719,-0.1605,-0.1624,-0.1391,-0.1362,-0.1595,-0.1577,-0.1725,-0.1723,-0.1721,-0.1719,0,-0.1139,-0.1115,-0.1116,-0.109,-0.1076,-0.108,-0.108,-0.1101,-0.1166,-0.1272,-0.1319,-0.1443,-0.1558,-0.1632,-0.1763,-0.1745,-0.1812,-0.1814,-0.1558,-0.1535,-0.1696,-0.1679,-0.1833,-0.183,-0.1828,-0.1827,-0.1825,0,-0.1171,-0.1182,-0.1136,-0.1113,-0.1107,-0.1089,-0.1089,-0.1107,-0.1144,-0.1329,-0.1402,-0.1558,-0.1607,-0.1751,-0.1674,-0.1714,-0.1806,-0.1583,-0.1404,-0.17,-0.1704,-0.1689,-0.1675,-0.1222,-0.1216,-0.1211,-0.1206,0,-0.1229,-0.1222,-0.1207,-0.1142,-0.1127,-0.1118,-0.1121,-0.1148,-0.1224,-0.1321,-0.1459,-0.1521,-0.158,-0.1436,-0.1458,-0.1447,-0.1533,-0.1478,-0.1884,-0.1185,-0.113,-0.1131,-0.1137,-0.1161,-0.1166,-0.1169,-0.1171,-0.1173,-0.1262,-0.1251,-0.1199,-0.1143,-0.1137,-0.114,-0.1093,-0.1138,-0.1177,-0.1258,-0.1374,-0.136,-0.1313,-0.1123,-0.1115,-0.1105,-0.1213,-0.1186,-0.1199,-0.1219,-0.1052,-0.099,-0.0972,-0.0975,-0.0978,-0.098,-0.0982,0,-0.1254,-0.1219,-0.118,-0.1099,-0.1081,-0.1088,-0.1097,-0.1029,-0.1029,-0.1075,-0.1097,-0.0924,-0.0792,-0.0798,-0.0647,-0.0668,-0.0653,-0.0701,-0.0642,-0.0684,-0.0721,-0.0529,-0.0311,-0.031,-0.031,-0.0309,0,0,-0.1232,-0.1165,-0.1119,-0.1026,-0.0994,-0.0913,-0.0894,-0.0841,-0.0779,-0.0717,-0.0645,-0.0634,-0.0646,-0.0421,-0.0392,-0.0323,-0.0505,-0.0303,-0.0814,-0.0773,-0.081,-0.0948,-0.069,0,0,0,0,0]},{"header":{"parameterUnit":"m.s-1","parameterCategory":2,"la1":30.2991,"la2":30.254,"lo1":-89.0895,"lo2":-89.0444,"dy":0.0017,"dx":0.0017,"nx":28,"ny":28,"refTime":"2023-09-24T21:00:00:Z","depth":"2","parameterNumber":3,"parameterNumberName":"V-component_of_CURRENTS"},"data":[0,0,0,0,0,0,0,0,0,0,0,0,0,0,0,0,0,0,0,0,0,0,0,0,0,0,0,0,0,0,0,0,0,0,0,0,0,0,0,0,0,0,0,0,0,0,0,0,0,0,0,0,0,0,0,0,0,0,-0.0081,-0.008,0,0.0038,0.0039,0.004,0.0044,0.0043,0.0042,0.004,0.0128,0.0132,0.0135,0,0,0,0,0,0,0,0,0,0,0,0,0,-0.0243,-0.024,-0.0081,-0.0079,-0.0078,0.0038,0.0039,0.0041,0.0044,0.0043,0.0041,0.004,0.0127,0.0131,0.0136,0,0,0,0,0,0,0,0,0,0,0,0,0,-0.0154,-0.0239,-0.0081,-0.0061,-0.0058,0.0037,0.0039,0.0041,0.0045,0.0043,0.0041,0.0039,0.0126,0.0131,0.0136,0.0209,0,0,0.0152,0.0155,0,0,0,0,0,0,0,0,-0.016,-0.0149,-0.0066,-0.0062,-0.0059,0.0025,0.0014,0.0096,0.0045,0.0004,0.004,0.0038,0.0093,0.0101,0.0126,0.0213,0.0217,0.0153,0.0156,0.0158,0.016,0,0,0,0,0,0,0,-0.0166,-0.0153,-0.0035,-0.0064,-0.0059,-0.0037,-0.0027,0.003,0.0057,0.0008,0.0009,0.0025,0.0094,0.0121,0.0128,0.0218,0.0153,0.0158,0.0161,0.0163,0.0359,0.0361,0,0,0,0,0,0,-0.0178,-0.0159,-0.0039,-0.0032,-0.0113,-0.0032,-0.0021,-0.0001,0.0057,0.0065,0.0026,0.0024,0.0113,0.0122,0.0132,0.0191,0.0158,0.0163,0.0167,0.0357,0.0359,0.0361,0,0,0,0,0,0,-0.0182,-0.0168,-0.0044,-0.0092,-0.0075,-0.0028,-0.0004,0.0003,0.0023,0.0072,0.0078,0.0038,0.0112,0.0124,0.0177,0.0195,0.0166,0.0171,0.0354,0.0357,0.036,0.0329,0,0,0,0,0,0,-0.0187,-0.017,-0.016,-0.0093,-0.0072,0.0015,-0.0002,0.0007,0.0037,0.0035,0.0085,0.0091,0.0111,0.0169,0.0183,0.0202,0.0175,0.0352,0.0356,0.0359,0.0328,0.0331,0.0334,0,0,0,0,0,-0.0193,-0.0165,-0.016,-0.0146,-0.006,0.0017,0.003,0.0055,0.0039,0.0062,0.0085,0.0089,0.0202,0.0175,0.0191,0.0212,0.035,0.0355,0.0359,0.0327,0.033,0.0333,0,0,0,0,0,0,-0.0225,-0.016,-0.0154,-0.0107,-0.0052,0.0018,0.0042,0.0058,0.0097,0.0085,0.0116,0.0126,0.018,0.0212,0.0181,0.0283,0.0278,0.0286,0.0248,0.0252,0.0255,0.0219,0.0179,0,0,0,0,0,-0.0228,-0.0196,-0.0128,-0.0092,-0.0066,-0.0014,0.0017,0.0036,0.0082,0.0096,0.0128,0.0168,0.0217,0.0242,0.0292,0.0352,0.0363,0.0379,0.0382,0.0383,0.0368,0.0402,0.0405,0.0376,0.0376,0.0376,0,0,-0.0232,-0.0191,-0.0175,-0.0098,-0.0058,-0.0008,-0.0001,0.0049,0.008,0.0102,0.0145,0.0181,0.0237,0.0295,0.0323,0.0318,0.0402,0.0389,0.039,0.0373,0.0407,0.0409,0.0411,0.0379,0.0378,0.0378,0,0,-0.0217,-0.0187,-0.0155,-0.0107,-0.0043,-0.0005,0.0007,0.0074,0.009,0.0149,0.0164,0.0203,0.0289,0.0321,0.0351,0.0407,0.0416,0.0433,0.0417,0.045,0.0452,0.0453,0.0475,0.0478,0.0434,0.0434,0.0434,0,-0.0227,-0.0177,-0.0132,-0.0085,-0.0055,-0.0007,0.003,0.0074,0.0144,0.0141,0.0157,0.0247,0.0299,0.0348,0.0371,0.0409,0.0424,0.0391,0.0449,0.0451,0.0452,0.0475,0.0479,0.0433,0.0433,0.0433,0.0433,0,-0.0185,-0.0147,-0.0121,-0.0057,-0.0015,0.0029,0.0086,0.0111,0.0129,0.0153,0.0194,0.0265,0.0303,0.0346,0.038,0.0423,0.0428,0.0443,0.0426,0.0452,0.0476,0.048,0.0432,0.0432,0.0432,0.0432,0,0,-0.0204,-0.0114,-0.0107,-0.0092,-0.0005,0.0026,0.0071,0.0109,0.01,0.0168,0.0169,0.0266,0.0269,0.0305,0.0354,0.0397,0.044,0.0424,0.0427,0.0419,0.0503,0.0479,0.0481,0.0459,0.046,0.0461,0.0514,0,-0.019,-0.0125,-0.0078,-0.0034,-0.0001,0.0038,0.0061,0.009,0.012,0.0137,0.0189,0.0224,0.0267,0.0285,0.0332,0.0421,0.0451,0.0423,0.0501,0.0503,0.0456,0.0485,0.0477,0.0521,0.0519,0.052,0.052,0,-0.0167,-0.013,-0.0089,-0.0058,-0.0046,-0.0019,-0.0015,0.0017,0.0048,0.0063,0.0093,0.0138,0.0214,0.0252,0.0372,0.035,0.0415,0.0479,0.0482,0.0467,0.0487,0.0497,0.0529,0.0528,0.0528,0.0527,0.0526,0,-0.0222,-0.0146,-0.0131,-0.0108,-0.0056,-0.0063,-0.0045,-0.0024,-0.0023,0.0018,0.0025,0.0096,0.0152,0.0239,0.0364,0.0373,0.0489,0.0519,0.0546,0.0545,0.0555,0.0554,0.058,0.058,0.058,0.058,0.0579,0,-0.0229,-0.0218,-0.0161,-0.0154,-0.0167,-0.0119,-0.0143,-0.0122,-0.0099,-0.0107,-0.0024,0.0007,0.0154,0.0239,0.0341,0.045,0.0465,0.0538,0.0557,0.0547,0.0544,0.0564,0.0561,0.0582,0.0581,0.0581,0.058,0,-0.0291,-0.0243,-0.0231,-0.0195,-0.0189,-0.0205,-0.0191,-0.0214,-0.0179,-0.0171,-0.0156,-0.0046,0.0072,0.0195,0.0356,0.0422,0.053,0.0555,0.0524,0.0538,0.0571,0.0566,0.0605,0.0605,0.0604,0.0604,0.0604,0,-0.0307,-0.031,-0.0283,-0.0287,-0.0271,-0.0278,-0.0297,-0.0262,-0.0266,-0.0204,-0.02,-0.0085,0.0008,0.0216,0.0358,0.0503,0.0516,0.0554,0.0571,0.0558,0.0573,0.057,0.0566,0.0585,0.0584,0.0584,0.0584,0,-0.0359,-0.0363,-0.036,-0.0368,-0.0376,-0.0392,-0.0393,-0.0399,-0.0365,-0.0318,-0.0237,-0.015,0.0042,0.0224,0.0384,0.0467,0.0533,0.055,0.0559,0.0565,0.0539,0.0554,0.0551,0.0581,0.0581,0.0581,0.0582,0.0582,-0.0414,-0.0428,-0.0435,-0.0449,-0.0466,-0.0496,-0.0504,-0.0485,-0.046,-0.0357,-0.0258,-0.0097,0.0059,0.0317,0.0415,0.0501,0.0529,0.0567,0.0569,0.057,0.0544,0.0517,0.055,0.055,0.055,0.055,0.055,0,-0.0487,-0.0496,-0.051,-0.0523,-0.0569,-0.0556,-0.0567,-0.0549,-0.05,-0.0338,-0.0199,-0.0019,0.0166,0.0296,0.0441,0.053,0.0537,0.0528,0.0536,0.0539,0.0541,0.0513,0.0511,0.0511,0.0511,0.0511,0,0,-0.0522,-0.0558,-0.0556,-0.0614,-0.0632,-0.0665,-0.0668,-0.0601,-0.048,-0.0291,-0.0134,0.0073,0.0213,0.0301,0.0411,0.0469,0.0483,0.0466,0.0496,0.0499,0.0501,0.0568,0.0528,0,0,0,0,0]}],[{"header":{"parameterUnit":"m.s-1","parameterCategory":2,"la1":30.2991,"la2":30.254,"lo1":-89.0895,"lo2":-89.0444,"dy":0.0017,"dx":0.0017,"nx":28,"ny":28,"refTime":"2023-09-24T21:00:00:Z","depth":"4","parameterNumber":2,"parameterNumberName":"U-component_of_CURRENTS"},"data":[0,0,0,0,0,0,0,0,0,0,0,0,0,0,0,0,0,0,0,0,0,0,0,0,0,0,0,0,0,0,0,0,0,0,0,0,0,0,0,0,0,0,0,0,0,0,0,0,0,0,0,0,0,0,0,0,0,0,-0.0516,-0.0517,0,-0.055,-0.0551,-0.0551,-0.0582,-0.0582,-0.0582,-0.0583,-0.0657,-0.0659,-0.0661,0,0,0,0,0,0,0,0,0,0,0,0,0,-0.0481,-0.0482,-0.0516,-0.0517,-0.0517,-0.055,-0.0551,-0.0551,-0.0582,-0.0582,-0.0582,-0.0583,-0.0657,-0.0659,-0.0661,0,0,0,0,0,0,0,0,0,0,0,0,0,-0.0505,-0.0482,-0.0516,-0.0536,-0.0538,-0.055,-0.0551,-0.0551,-0.0582,-0.0582,-0.0582,-0.0583,-0.0656,-0.0659,-0.0661,-0.0668,0,0,-0.0669,-0.067,0,0,0,0,0,0,0,0,-0.0503,-0.0506,-0.0532,-0.0534,-0.0537,-0.0561,-0.0566,-0.0592,-0.0581,-0.0566,-0.0583,-0.0583,-0.0628,-0.0633,-0.0639,-0.0672,-0.0675,-0.0669,-0.0671,-0.0672,-0.0673,0,0,0,0,0,0,0,-0.0502,-0.0505,-0.053,-0.0533,-0.0535,-0.0544,-0.0547,-0.0571,-0.0595,-0.0567,-0.0569,-0.0572,-0.063,-0.0636,-0.0641,-0.0676,-0.0669,-0.0672,-0.0673,-0.0674,-0.078,-0.0782,0,0,0,0,0,0,-0.0495,-0.0503,-0.0529,-0.0531,-0.052,-0.0544,-0.0548,-0.0554,-0.0594,-0.06,-0.0571,-0.0573,-0.0632,-0.0638,-0.0644,-0.0703,-0.0672,-0.0674,-0.0676,-0.0779,-0.0781,-0.0782,0,0,0,0,0,0,-0.0494,-0.0497,-0.0528,-0.0517,-0.0522,-0.0544,-0.055,-0.0554,-0.0575,-0.0597,-0.0604,-0.0589,-0.0632,-0.064,-0.0685,-0.0704,-0.0676,-0.0678,-0.0778,-0.078,-0.0781,-0.079,0,0,0,0,0,0,-0.0493,-0.0497,-0.0506,-0.0517,-0.0522,-0.0547,-0.0549,-0.0554,-0.0574,-0.0577,-0.0614,-0.0621,-0.0633,-0.0681,-0.0688,-0.0707,-0.068,-0.0776,-0.0779,-0.0781,-0.0788,-0.0792,-0.0795,0,0,0,0,0,-0.0492,-0.05,-0.0506,-0.051,-0.0531,-0.0547,-0.0551,-0.0568,-0.0575,-0.0588,-0.0618,-0.062,-0.0701,-0.0684,-0.0692,-0.0712,-0.0775,-0.0778,-0.0781,-0.0786,-0.0791,-0.0795,0,0,0,0,0,0,-0.0489,-0.0504,-0.0511,-0.0523,-0.054,-0.0552,-0.0565,-0.0575,-0.0607,-0.0614,-0.0636,-0.0645,-0.0692,-0.0704,-0.0685,-0.0752,-0.0739,-0.0743,-0.0741,-0.0745,-0.0749,-0.0719,-0.0682,0,0,0,0,0,-0.0491,-0.0497,-0.0517,-0.0524,-0.0537,-0.0553,-0.0564,-0.0575,-0.0599,-0.0614,-0.0647,-0.0679,-0.0706,-0.0727,-0.0756,-0.0791,-0.078,-0.0811,-0.0814,-0.0817,-0.08,-0.0794,-0.0794,-0.0792,-0.0791,-0.0791,0,0,-0.0486,-0.0497,-0.0499,-0.0523,-0.0537,-0.0558,-0.0562,-0.058,-0.0597,-0.0617,-0.0666,-0.0695,-0.072,-0.0761,-0.0783,-0.0775,-0.0818,-0.0821,-0.0823,-0.0803,-0.0797,-0.0797,-0.0797,-0.0793,-0.0793,-0.0793,0,0,-0.0483,-0.0497,-0.0508,-0.0526,-0.0551,-0.0563,-0.0572,-0.0604,-0.0623,-0.0666,-0.0685,-0.0714,-0.0777,-0.0785,-0.0796,-0.0834,-0.0837,-0.0866,-0.086,-0.0856,-0.0855,-0.0854,-0.0858,-0.0857,-0.0868,-0.0868,-0.0868,0,-0.0482,-0.0496,-0.0514,-0.0536,-0.0551,-0.0568,-0.059,-0.0607,-0.0651,-0.0677,-0.0686,-0.0762,-0.0774,-0.0805,-0.0817,-0.0837,-0.0848,-0.0839,-0.0857,-0.0856,-0.0855,-0.0859,-0.0858,-0.0869,-0.0868,-0.0868,-0.0868,0,-0.0487,-0.0508,-0.0516,-0.0548,-0.0572,-0.0586,-0.0617,-0.0654,-0.0681,-0.0702,-0.0754,-0.077,-0.081,-0.0826,-0.0829,-0.0844,-0.086,-0.086,-0.0838,-0.0855,-0.0859,-0.0858,-0.087,-0.0869,-0.0869,-0.0869,0,0,-0.0464,-0.051,-0.0517,-0.0544,-0.0579,-0.0604,-0.064,-0.0682,-0.0714,-0.0751,-0.0786,-0.0812,-0.0824,-0.0835,-0.0847,-0.0837,-0.0834,-0.0849,-0.0849,-0.0838,-0.0844,-0.0807,-0.0802,-0.0851,-0.085,-0.085,-0.0856,0,-0.0465,-0.0501,-0.0529,-0.0574,-0.0599,-0.0639,-0.0675,-0.0719,-0.0751,-0.0794,-0.0798,-0.0832,-0.0826,-0.0845,-0.0834,-0.0839,-0.083,-0.0833,-0.0842,-0.0841,-0.0793,-0.0798,-0.0848,-0.0855,-0.0855,-0.0855,-0.0854,0,-0.0464,-0.0492,-0.0528,-0.0601,-0.0621,-0.0654,-0.0726,-0.076,-0.0809,-0.0833,-0.0855,-0.0866,-0.0861,-0.0845,-0.0836,-0.0851,-0.0841,-0.0834,-0.0834,-0.0787,-0.08,-0.0832,-0.0852,-0.0852,-0.0852,-0.0852,-0.0853,0,-0.0435,-0.0501,-0.0528,-0.0547,-0.0623,-0.0667,-0.0716,-0.0778,-0.0815,-0.085,-0.0872,-0.0879,-0.0875,-0.0866,-0.0845,-0.0852,-0.083,-0.0837,-0.0794,-0.0792,-0.0819,-0.082,-0.0814,-0.0814,-0.0814,-0.0814,-0.0814,0,-0.0415,-0.0449,-0.0523,-0.0537,-0.0605,-0.0666,-0.0733,-0.0783,-0.0835,-0.0867,-0.0883,-0.0885,-0.0879,-0.0871,-0.0855,-0.0817,-0.0838,-0.078,-0.0783,-0.0828,-0.0829,-0.0819,-0.082,-0.0814,-0.0814,-0.0814,-0.0814,0,-0.0372,-0.0412,-0.0458,-0.0545,-0.0587,-0.0637,-0.0749,-0.0798,-0.0838,-0.0871,-0.0879,-0.0892,-0.0874,-0.087,-0.0846,-0.0819,-0.0793,-0.0774,-0.0827,-0.0835,-0.076,-0.0761,-0.0728,-0.0727,-0.0725,-0.0724,-0.0723,0,-0.0351,-0.0359,-0.0454,-0.0513,-0.0559,-0.0647,-0.0716,-0.0788,-0.0825,-0.0863,-0.087,-0.0868,-0.0866,-0.0798,-0.0801,-0.0777,-0.0763,-0.0754,-0.074,-0.0741,-0.0747,-0.0751,-0.0754,-0.0721,-0.0721,-0.0721,-0.0721,0,-0.0305,-0.0331,-0.0373,-0.05,-0.0586,-0.0661,-0.0751,-0.0761,-0.0825,-0.086,-0.0827,-0.0805,-0.0784,-0.0756,-0.0742,-0.0724,-0.0762,-0.0741,-0.0743,-0.073,-0.0732,-0.0741,-0.0745,-0.0716,-0.0717,-0.0717,-0.0718,0,-0.0279,-0.0296,-0.0376,-0.0504,-0.0602,-0.0668,-0.0702,-0.0745,-0.0773,-0.0796,-0.0776,-0.0765,-0.0767,-0.0729,-0.0716,-0.0696,-0.0685,-0.0663,-0.0669,-0.0674,-0.0653,-0.0648,-0.0596,0,0,0,0,0,-0.0254,-0.0301,-0.0403,-0.052,-0.0618,-0.0675,-0.0745,-0.0765,-0.079,-0.0751,-0.076,-0.0731,-0.0691,-0.0687,-0.0654,-0.0713,-0.0705,-0.0674,-0.0687,-0.0692,-0.0697,-0.0677,0,0,0,0,0,0,-0.0246,-0.031,-0.0388,-0.0531,-0.0604,-0.0689,-0.0712,-0.0721,-0.0696,-0.0709,-0.0684,-0.0696,-0.0667,-0.0694,-0.0639,-0.0642,-0.0638,-0.0675,-0.0673,-0.069,-0.0694,-0.0698,-0.0679,0,0,0,0,0]},{"header":{"parameterUnit":"m.s-1","parameterCategory":2,"la1":30.2991,"la2":30.254,"lo1":-89.0895,"lo2":-89.0444,"dy":0.0017,"dx":0.0017,"nx":28,"ny":28,"refTime":"2023-09-24T21:00:00:Z","depth":"4","parameterNumber":3,"parameterNumberName":"V-component_of_CURRENTS"},"data":[0,0,0,0,0,0,0,0,0,0,0,0,0,0,0,0,0,0,0,0,0,0,0,0,0,0,0,0,0,0,0,0,0,0,0,0,0,0,0,0,0,0,0,0,0,0,0,0,0,0,0,0,0,0,0,0,0,0,-0.0266,-0.0266,0,-0.0263,-0.0263,-0.0263,-0.0258,-0.0258,-0.0258,-0.0258,-0.0226,-0.0225,-0.0224,0,0,0,0,0,0,0,0,0,0,0,0,0,-0.0238,-0.0239,-0.0266,-0.0266,-0.0266,-0.0263,-0.0263,-0.0263,-0.0258,-0.0258,-0.0258,-0.0258,-0.0226,-0.0225,-0.0224,0,0,0,0,0,0,0,0,0,0,0,0,0,-0.0243,-0.0239,-0.0266,-0.0264,-0.0264,-0.0263,-0.0263,-0.0263,-0.0258,-0.0258,-0.0258,-0.0258,-0.0227,-0.0225,-0.0224,-0.0217,0,0,-0.022,-0.022,0,0,0,0,0,0,0,0,-0.0243,-0.0244,-0.0264,-0.0264,-0.0264,-0.0261,-0.0241,-0.0246,-0.0258,-0.0259,-0.0258,-0.0258,-0.0236,-0.0234,-0.0233,-0.0215,-0.0214,-0.022,-0.022,-0.0219,-0.0219,0,0,0,0,0,0,0,-0.0243,-0.0244,-0.0264,-0.0264,-0.0264,-0.0253,-0.0254,-0.0242,-0.0246,-0.0259,-0.0259,-0.026,-0.0235,-0.0234,-0.0232,-0.0214,-0.022,-0.0219,-0.0218,-0.0218,-0.0182,-0.0181,0,0,0,0,0,0,-0.0246,-0.0244,-0.0264,-0.0264,-0.0254,-0.0254,-0.0255,-0.0262,-0.0247,-0.0246,-0.026,-0.026,-0.0236,-0.0233,-0.0231,-0.0209,-0.0219,-0.0218,-0.0217,-0.0182,-0.0181,-0.0181,0,0,0,0,0,0,-0.0246,-0.0248,-0.0264,-0.0254,-0.0255,-0.0254,-0.0262,-0.0262,-0.0265,-0.0248,-0.0246,-0.0264,-0.0236,-0.0232,-0.0222,-0.0208,-0.0217,-0.0216,-0.0182,-0.0182,-0.0181,-0.0172,0,0,0,0,0,0,-0.0245,-0.0248,-0.0257,-0.0255,-0.0256,-0.0267,-0.0262,-0.0261,-0.0266,-0.0265,-0.0251,-0.0248,-0.0236,-0.0224,-0.0221,-0.0206,-0.0215,-0.0182,-0.0182,-0.0181,-0.0173,-0.0172,-0.0171,0,0,0,0,0,-0.0244,-0.0256,-0.0257,-0.026,-0.0267,-0.0267,-0.0267,-0.0265,-0.0266,-0.0268,-0.0258,-0.0249,-0.0219,-0.0223,-0.022,-0.0204,-0.0182,-0.0182,-0.0181,-0.0174,-0.0172,-0.0171,0,0,0,0,0,0,-0.0247,-0.0257,-0.0258,-0.0272,-0.0271,-0.0266,-0.027,-0.0269,-0.0264,-0.0263,-0.0249,-0.0245,-0.0232,-0.0222,-0.0227,-0.0193,-0.0198,-0.0197,-0.0193,-0.0192,-0.0191,-0.0162,-0.0214,0,0,0,0,0,-0.0252,-0.0265,-0.0266,-0.0277,-0.0278,-0.0275,-0.0276,-0.0274,-0.0268,-0.0267,-0.0256,-0.0241,-0.0226,-0.0214,-0.0204,-0.0185,-0.0155,-0.0172,-0.0171,-0.017,-0.0144,-0.0084,-0.0075,-0.018,-0.018,-0.018,0,0,-0.0257,-0.0263,-0.0272,-0.0279,-0.0278,-0.0278,-0.0276,-0.0279,-0.0273,-0.0263,-0.0253,-0.0243,-0.0223,-0.0203,-0.0195,-0.0191,-0.0132,-0.0169,-0.0168,-0.0143,-0.0083,-0.0072,-0.0063,-0.0179,-0.0179,-0.0179,0,0,-0.0268,-0.0278,-0.0289,-0.0288,-0.0289,-0.0286,-0.0289,-0.0284,-0.0277,-0.027,-0.0256,-0.0226,-0.0223,-0.0183,-0.0168,-0.0152,-0.0135,-0.0166,-0.0125,-0.0068,-0.0058,-0.0049,-0.0025,-0.0014,-0.0156,-0.0156,-0.0156,0,-0.0271,-0.0287,-0.0291,-0.0293,-0.0291,-0.029,-0.029,-0.0283,-0.0274,-0.0247,-0.0269,-0.0211,-0.0201,-0.0137,-0.0136,-0.0144,-0.0128,-0.0133,-0.0064,-0.0054,-0.0045,-0.0023,-0.001,-0.0156,-0.0156,-0.0156,-0.0156,0,-0.0285,-0.0294,-0.0299,-0.0303,-0.0299,-0.0302,-0.0289,-0.0278,-0.0274,-0.0248,-0.0198,-0.0178,-0.0131,-0.0131,-0.0132,-0.0057,-0.0075,-0.0077,-0.0064,-0.0034,-0.0013,-0.0,-0.0155,-0.0155,-0.0155,-0.0155,0,0,-0.0298,-0.0308,-0.031,-0.0305,-0.0304,-0.0298,-0.0282,-0.0247,-0.0215,-0.0195,-0.0145,-0.0102,-0.0074,-0.0053,-0.004,0.0012,0.0074,-0.0007,-0.0005,0.0023,0.0174,0.0135,0.0145,0.0077,0.008,0.0082,0.0152,0,-0.0306,-0.0317,-0.0316,-0.0312,-0.0312,-0.0293,-0.0271,-0.0232,-0.0205,-0.0158,-0.0097,-0.0059,-0.005,-0.0035,0.0026,0.005,0.0112,0.0054,0.0136,0.0139,0.0107,0.0161,0.0092,0.0162,0.0165,0.0167,0.0169,0,-0.0316,-0.0321,-0.0327,-0.0302,-0.0298,-0.0291,-0.0239,-0.0217,-0.0139,-0.0116,-0.0042,-0.0013,0.0069,0.0055,0.0171,0.0125,0.0164,0.019,0.0193,0.0172,0.0125,0.0132,0.0192,0.0191,0.0189,0.0187,0.0186,0,-0.0319,-0.032,-0.0325,-0.0322,-0.03,-0.0282,-0.026,-0.0193,-0.0166,-0.0086,-0.0066,0.0043,0.0073,0.0156,0.0205,0.0187,0.0316,0.0297,0.0314,0.0309,0.0318,0.0308,0.0412,0.0412,0.0412,0.0412,0.0412,0,-0.0322,-0.0322,-0.0328,-0.0327,-0.0308,-0.0283,-0.0244,-0.0204,-0.0151,-0.0104,-0.0042,0.0006,0.0099,0.0171,0.0227,0.0305,0.0343,0.0345,0.0343,0.0313,0.0302,0.0325,0.0314,0.0415,0.0414,0.0413,0.0413,0,-0.0323,-0.0332,-0.0332,-0.032,-0.0313,-0.0295,-0.0262,-0.0233,-0.0182,-0.013,-0.0113,-0.0019,0.0079,0.0167,0.0289,0.0318,0.04,0.0425,0.0376,0.0364,0.0347,0.0336,0.0454,0.0454,0.0453,0.0453,0.0453,0,-0.0324,-0.033,-0.0336,-0.0336,-0.0334,-0.0312,-0.0299,-0.0254,-0.0234,-0.0138,-0.0121,-0.0015,0.0055,0.0199,0.0291,0.0408,0.0421,0.0446,0.0424,0.0375,0.0361,0.0349,0.0339,0.0452,0.0452,0.0452,0.0452,0,-0.0322,-0.0335,-0.0338,-0.0352,-0.035,-0.0344,-0.0326,-0.0317,-0.0256,-0.0213,-0.0117,-0.0024,0.0087,0.0201,0.0287,0.0374,0.0415,0.0442,0.0444,0.0424,0.0374,0.0358,0.0347,0.0451,0.0451,0.0451,0.0451,0,-0.0324,-0.0329,-0.0349,-0.0358,-0.037,-0.0382,-0.0358,-0.0326,-0.0296,-0.0198,-0.0158,-0.002,0.007,0.0186,0.0273,0.0343,0.0357,0.0354,0.036,0.0363,0.0307,0.023,0.0286,0,0,0,0,0,-0.0327,-0.0342,-0.0352,-0.0369,-0.0393,-0.0406,-0.0386,-0.0361,-0.0307,-0.0248,-0.0203,-0.009,0.0063,0.014,0.0206,0.0251,0.0352,0.0325,0.0347,0.0444,0.0446,0.0393,0,0,0,0,0,0,-0.0324,-0.0345,-0.0358,-0.04,-0.0421,-0.0443,-0.0439,-0.0393,-0.0354,-0.0277,-0.0191,-0.0111,0.0039,0.0019,0.0194,0.0221,0.0234,0.0411,0.0411,0.0443,0.0445,0.0446,0.0392,0,0,0,0,0]}]]